SCP
0 0 -0 -0 0 0 0 0 -0 -0 -0 -0 -0 0 0 -0 -0 -0 -0 -0 -0 -0 -0 -0 -0 -0 -0 -0 -0 -0 -0 -0
0 0 0 -0 0 0 0 0 0 0 0 0 -0 -0 -0 -0 -1 -0 -0 -0 -0 -0 -1 -1 -0 -0 -0 -0 -0 -0 -0 -0
0 0 0 0 0 0 0 0 0 -0 0 0 0 0 -0 -0 -0 -0 -0 -0 -0 -0 -0 -0 -0 -0 -0 -0 -0 -0 -0 -0
0 0 0 0 0 0 0 0 -0 0 0 0 -0 0 0 -0 0 0 -0 -0 0 -0 -0 -0 -0 -0 -0 -0 -0 -0 -0 -0
0 0 0 0 0 -0 -0 0 0 0 0 0 0 0 0 0 0 0 0 0 0 0 0 -0 -0 -0 -0 -0 -0 0 0 0
0 0 0 0 0 0 -0 0 0 1 0 0 0 0 0 0 1 1 1 1 1 0 0 0 0 0 0 0 0 0 0 0
0 0 0 0 0 0 -0 0 0 0 1 1 0 0 1 1 1 0 0 0 0 0 0 0 0 0 0 0 0 0 0 0
0 0 0 0 0 0 0 0 0 1 0 0 1 1 0 0 1 0 0 0 0 0 0 0 0 0 0 0 0 0 0 0
0 0 0 0 0 0 0 0 0 0 0 0 0 0 0 0 0 1 0 0 0 0 0 0 0 0 0 0 0 0 0 0
0 0 0 0 0 0 0 0 0 0 0 -0 0 0 0 0 0 0 0 0 0 0 0 0 0 0 0 0 0 0 0 0
0 0 0 0 0 0 0 0 0 0 0 0 0 0 0 0 1 0 0 0 0 0 0 0 0 0 0 0 0 0 0 0
0 0 0 0 0 0 0 0 0 0 0 -0 0 0 0 0 0 1 0 0 0 0 0 0 0 0 0 0 0 0 0 0
0 0 0 0 0 0 0 0 0 0 0 0 -0 0 0 0 1 1 1 1 2 0 0 0 0 0 0 0 0 0 0 0
-0 0 0 0 0 0 0 -0 0 0 0 0 -0 -0 0 0 1 0 0 0 -0 0 0 0 0 0 1 0 0 0 0 0
0 0 0 0 0 0 0 -0 0 0 0 0 0 0 -0 0 1 0 0 0 0 0 0 0 0 0 1 1 1 1 1 1
0 0 0 0 0 0 0 0 0 -0 0 0 0 -0 -0 -0 0 0 0 0 0 0 -0 -0 0 0 1 2 3 4 3 2
0 0 0 0 0 0 0 0 0 0 0 0 0 0 0 0 0 -0 -0 0 -0 0 -0 -0 -0 -0 1 3 3 3 3 2
0 0 0 0 0 0 0 0 0 0 0 0 0 0 0 0 0 0 -0 -0 -0 -0 -0 -0 -0 -0 2 3 3 3 2 1
0 0 0 0 0 0 0 0 0 0 0 0 0 0 0 0 0 0 0 0 0 0 0 0 1 2 2 2 2 2 1 1
0 0 0 0 0 0 0 0 0 0 0 0 0 0 0 0 0 0 0 0 1 1 1 1 2 1 3 3 3 3 2 2
Wind_Speed_500mb
6 6 10 8 9 10 33 44 56 20 26 5 7 20 46 34 45 61 58 64 63 58 53 50 50 49 45 41 36 32 31 31
6 18 11 5 23 25 23 23 21 27 8 19 27 38 36 50 47 54 58 64 63 58 51 49 49 50 48 43 38 31 27 27
4 18 7 15 25 40 32 8 26 52 10 8 29 41 22 55 54 55 62 64 60 56 51 48 47 47 46 42 39 34 29 25
8 19 8 15 37 44 34 26 6 21 21 9 13 22 41 53 57 53 61 65 60 53 49 48 46 46 45 41 37 33 28 26
9 8 10 8 17 13 19 27 18 37 10 14 27 39 49 46 46 53 58 60 59 55 49 45 45 46 44 40 36 31 26 22
10 7 12 13 17 13 22 23 25 17 14 18 46 45 41 33 32 51 52 53 54 52 49 47 46 45 43 40 37 33 28 25
11 10 10 36 17 16 33 62 58 23 29 46 53 54 49 44 35 34 35 44 44 43 43 43 44 45 43 41 38 35 32 29
9 3 10 26 6 5 15 46 50 34 43 45 49 42 46 41 35 32 32 34 42 45 45 45 44 45 44 41 40 37 33 30
13 11 15 18 4 2 19 17 29 29 25 31 51 40 44 37 38 20 26 39 44 44 44 43 45 43 42 39 38 36 34 30
12 22 19 9 12 9 24 22 22 32 6 36 49 30 37 37 40 20 7 25 41 42 44 44 41 40 35 34 35 35 32 32
25 29 31 19 3 6 15 22 25 19 30 11 26 37 42 46 30 27 2 10 26 36 39 37 35 34 30 29 34 30 29 30
25 30 33 14 6 5 6 19 8 15 13 10 7 21 36 53 64 44 35 28 30 30 38 41 34 26 26 22 23 30 25 24
24 25 16 23 8 12 10 11 15 14 31 3 7 1 23 39 58 46 49 48 48 44 35 38 41 38 38 37 30 29 29 22
32 15 17 32 29 9 7 5 5 23 32 33 5 19 11 47 50 46 41 43 51 89 37 21 58 51 51 45 46 37 33 33
27 22 8 8 6 11 30 14 10 9 24 39 33 24 16 43 59 51 41 43 55 63 75 69 61 56 55 62 55 50 45 42
28 10 6 9 7 6 10 3 20 28 19 30 30 16 25 32 32 45 48 48 56 58 75 79 69 58 65 70 60 57 61 59
7 17 12 14 11 12 29 20 23 30 30 23 20 4 35 36 33 30 22 29 44 65 67 67 46 57 67 63 67 66 62 59
14 13 12 13 17 16 17 21 38 43 29 27 23 21 44 47 43 34 29 23 27 31 33 49 65 63 56 55 52 44 33 30
8 14 9 14 9 13 12 29 41 53 41 35 30 42 39 38 40 46 45 36 28 23 26 27 39 54 56 57 54 47 39 41
16 8 9 13 10 13 14 22 17 52 48 37 40 32 45 41 39 37 38 35 29 23 29 34 35 45 38 43 44 32 40 41
Wind_Direction_500mb
121 156 195 201 241 300 311 142 129 157 203 261 212 162 151 154 166 173 178 173 174 176 177 174 171 168 166 165 161 153 149 152
111 241 256 230 281 301 297 257 137 173 170 223 174 180 186 173 168 175 181 175 174 175 177 178 175 171 170 169 166 161 157 156
194 257 245 277 280 295 292 183 147 162 201 241 193 180 202 174 175 177 179 175 175 175 177 179 177 175 174 173 171 170 166 164
223 257 315 285 302 285 273 308 126 148 118 79 231 215 177 173 172 178 178 174 174 176 178 178 178 176 179 177 179 179 175 170
216 259 311 273 318 32 345 25 354 139 89 124 144 160 157 168 173 180 181 176 176 177 178 178 181 181 182 181 183 185 186 180
237 168 267 260 308 327 4 18 40 96 152 156 147 151 164 163 174 177 181 181 180 178 179 180 183 185 185 186 187 189 191 190
239 150 259 310 273 273 69 45 37 18 125 136 145 163 161 158 156 164 180 188 189 186 185 187 187 187 190 192 192 195 195 197
227 256 313 301 252 124 73 42 28 71 124 135 145 157 142 152 158 170 185 203 203 198 196 193 193 195 195 197 199 200 204 206
258 237 315 318 227 57 116 64 48 46 148 142 142 128 149 141 169 179 215 212 208 208 205 203 201 199 200 203 207 207 208 211
268 263 310 327 330 62 91 124 73 49 166 176 176 193 184 169 161 109 27 219 213 219 218 212 210 209 207 211 215 217 217 218
266 270 272 271 320 145 133 119 112 54 68 201 235 224 208 208 185 216 355 9 216 223 236 237 226 224 219 225 229 228 225 228
274 263 249 230 196 25 149 23 94 354 48 104 167 236 229 235 230 223 244 254 248 223 231 226 231 233 248 255 246 233 229 228
246 238 238 229 242 213 225 334 356 322 317 75 120 307 296 226 216 218 194 187 213 219 240 235 237 254 252 253 251 238 238 237
256 193 239 187 244 244 205 86 322 303 300 301 67 10 307 222 207 192 198 190 172 199 204 228 244 236 250 253 248 249 252 254
269 191 174 171 227 256 260 294 305 317 300 289 305 21 35 197 194 210 206 208 211 204 213 205 224 229 233 252 256 250 249 253
232 191 151 169 183 243 236 233 301 300 282 279 284 90 88 120 193 206 208 218 209 202 206 213 224 229 229 233 240 241 244 247
236 199 156 194 186 195 245 260 262 276 283 243 254 207 128 129 131 140 170 208 206 211 213 216 245 233 225 230 236 241 246 247
219 230 152 175 196 195 232 255 269 268 267 239 227 167 140 133 130 137 134 143 189 205 218 231 242 238 239 244 242 245 257 260
199 207 220 151 258 229 239 243 252 255 268 257 246 243 171 150 144 138 142 147 160 180 210 229 228 230 240 246 246 254 262 263
220 174 213 165 242 246 220 240 208 234 235 244 251 244 175 157 142 141 137 148 159 184 204 219 228 228 227 230 237 238 242 250
Wind_Speed_850mb
6 6 10 8 9 10 33 44 56 20 26 5 7 20 46 34 45 61 58 64 63 58 53 50 50 49 45 41 36 32 31 31
6 18 11 5 23 25 23 23 21 27 8 19 27 38 36 50 47 54 58 64 63 58 51 49 49 50 48 43 38 31 27 27
4 18 7 15 25 40 32 8 26 52 10 8 29 41 22 55 54 55 62 64 60 56 51 48 47 47 46 42 39 34 29 25
8 19 8 15 37 44 34 26 6 21 21 9 13 22 41 53 57 53 61 65 60 53 49 48 46 46 45 41 37 33 28 26
9 8 10 8 17 13 19 27 18 37 10 14 27 39 49 46 46 53 58 60 59 55 49 45 45 46 44 40 36 31 26 22
10 7 12 13 17 13 22 23 25 17 14 18 46 45 41 33 32 51 52 53 54 52 49 47 46 45 43 40 37 33 28 25
11 10 10 36 17 16 33 62 58 23 29 46 53 54 49 44 35 34 35 44 44 43 43 43 44 45 43 41 38 35 32 29
9 3 10 26 6 5 15 46 50 34 43 45 49 42 46 41 35 32 32 34 42 45 45 45 44 45 44 41 40 37 33 30
13 11 15 18 4 2 19 17 29 29 25 31 51 40 44 37 38 20 26 39 44 44 44 43 45 43 42 39 38 36 34 30
12 22 19 9 12 9 24 22 22 32 6 36 49 30 37 37 40 20 7 25 41 42 44 44 41 40 35 34 35 35 32 32
25 29 31 19 3 6 15 22 25 19 30 11 26 37 42 46 30 27 2 10 26 36 39 37 35 34 30 29 34 30 29 30
25 30 33 14 6 5 6 19 8 15 13 10 7 21 36 53 64 44 35 28 30 30 38 41 34 26 26 22 23 30 25 24
24 25 16 23 8 12 10 11 15 14 31 3 7 1 23 39 58 46 49 48 48 44 35 38 41 38 38 37 30 29 29 22
32 15 17 32 29 9 7 5 5 23 32 33 5 19 11 47 50 46 41 43 51 89 37 21 58 51 51 45 46 37 33 33
27 22 8 8 6 11 30 14 10 9 24 39 33 24 16 43 59 51 41 43 55 63 75 69 61 56 55 62 55 50 45 42
28 10 6 9 7 6 10 3 20 28 19 30 30 16 25 32 32 45 48 48 56 58 75 79 69 58 65 70 60 57 61 59
7 17 12 14 11 12 29 20 23 30 30 23 20 4 35 36 33 30 22 29 44 65 67 67 46 57 67 63 67 66 62 59
14 13 12 13 17 16 17 21 38 43 29 27 23 21 44 47 43 34 29 23 27 31 33 49 65 63 56 55 52 44 33 30
8 14 9 14 9 13 12 29 41 53 41 35 30 42 39 38 40 46 45 36 28 23 26 27 39 54 56 57 54 47 39 41
16 8 9 13 10 13 14 22 17 52 48 37 40 32 45 41 39 37 38 35 29 23 29 34 35 45 38 43 44 32 40 41
Wind_Direction_850mb
121 156 195 201 241 300 311 142 129 157 203 261 212 162 151 154 166 173 178 173 174 176 177 174 171 168 166 165 161 153 149 152
111 241 256 230 281 301 297 257 137 173 170 223 174 180 186 173 168 175 181 175 174 175 177 178 175 171 170 169 166 161 157 156
194 257 245 277 280 295 292 183 147 162 201 241 193 180 202 174 175 177 179 175 175 175 177 179 177 175 174 173 171 170 166 164
223 257 315 285 302 285 273 308 126 148 118 79 231 215 177 173 172 178 178 174 174 176 178 178 178 176 179 177 179 179 175 170
216 259 311 273 318 32 345 25 354 139 89 124 144 160 157 168 173 180 181 176 176 177 178 178 181 181 182 181 183 185 186 180
237 168 267 260 308 327 4 18 40 96 152 156 147 151 164 163 174 177 181 181 180 178 179 180 183 185 185 186 187 189 191 190
239 150 259 310 273 273 69 45 37 18 125 136 145 163 161 158 156 164 180 188 189 186 185 187 187 187 190 192 192 195 195 197
227 256 313 301 252 124 73 42 28 71 124 135 145 157 142 152 158 170 185 203 203 198 196 193 193 195 195 197 199 200 204 206
258 237 315 318 227 57 116 64 48 46 148 142 142 128 149 141 169 179 215 212 208 208 205 203 201 199 200 203 207 207 208 211
268 263 310 327 330 62 91 124 73 49 166 176 176 193 184 169 161 109 27 219 213 219 218 212 210 209 207 211 215 217 217 218
266 270 272 271 320 145 133 119 112 54 68 201 235 224 208 208 185 216 355 9 216 223 236 237 226 224 219 225 229 228 225 228
274 263 249 230 196 25 149 23 94 354 48 104 167 236 229 235 230 223 244 254 248 223 231 226 231 233 248 255 246 233 229 228
246 238 238 229 242 213 225 334 356 322 317 75 120 307 296 226 216 218 194 187 213 219 240 235 237 254 252 253 251 238 238 237
256 193 239 187 244 244 205 86 322 303 300 301 67 10 307 222 207 192 198 190 172 199 204 228 244 236 250 253 248 249 252 254
269 191 174 171 227 256 260 294 305 317 300 289 305 21 35 197 194 210 206 208 211 204 213 205 224 229 233 252 256 250 249 253
232 191 151 169 183 243 236 233 301 300 282 279 284 90 88 120 193 206 208 218 209 202 206 213 224 229 229 233 240 241 244 247
236 199 156 194 186 195 245 260 262 276 283 243 254 207 128 129 131 140 170 208 206 211 213 216 245 233 225 230 236 241 246 247
219 230 152 175 196 195 232 255 269 268 267 239 227 167 140 133 130 137 134 143 189 205 218 231 242 238 239 244 242 245 257 260
199 207 220 151 258 229 239 243 252 255 268 257 246 243 171 150 144 138 142 147 160 180 210 229 228 230 240 246 246 254 262 263
220 174 213 165 242 246 220 240 208 234 235 244 251 244 175 157 142 141 137 148 159 184 204 219 228 228 227 230 237 238 242 250